Baton Rouge, LA

11:34 AM CDT on October 17, 2019 (GMT -0500)
Baton Rouge Metro-Ryan

Weather History for KBTR - August, 2019

Change the Weather History Date:

Tuesday, August 13, 2019

  Actual Average Record
Temperature  
Mean Temperature 87 °F 83 °F  
Max Temperature 97 °F 93 °F 103 °F (2007)
Min Temperature 77 °F 74 °F 60 °F (2004)
Degree Days  
Heating Degree Days 0 0  
Month to date heating degree days 0 0  
Since 1 June heating degree days 0 0  
Since 1 July heating degree days 0 0  
Cooling Degree Days 22 18  
Month to date cooling degree days 267 234  
Year to date cooling degree days 2001 1839  
Since 1 June cooling degree days 1330 1274  
Growing Degree Days 37 (Base 50)    
Moisture  
Dew Point 76 °F    
Average Humidity 70    
Maximum Humidity 91    
Minimum Humidity 48    
Precipitation  
Precipitation 0.70 in 0.20 in 3.61 in (2016)
Month to date precipitation 1.12 2.51  
Year to date precipitation 42.54 38.40  
Snow  
Snow 0.00 in - - ()
Month to date snowfall 0.0  
Since 1 June snowfall 0.0  
Since 1 July snowfall 0.0  
Snow Depth 0.00 in    
Sea Level Pressure  
Sea Level Pressure 29.91 in    
Wind  
Wind Speed 6 mph (West)    
Max Wind Speed 24 mph    
Max Gust Speed 29 mph    
Visibility 9 miles    
Events Rain , Thunderstorm    
T = Trace of Precipitation, MM = Missing Value Source: NWS Daily Summary

Daily Weather History Graph

Daily Weather History Graph

Search for Another Location

Airport or City:

Astronomy

Aug. 13, 2019 Rise Set
Actual Time 6:29 AM CDT 7:48 PM CDT
Civil Twilight 6:04 AM CDT 8:13 PM CDT
Nautical Twilight 5:34 AM CDT 8:44 PM CDT
Astronomical Twilight 5:02 AM CDT 9:15 PM CDT
Moon 6:55 PM CDT (8/13) 4:40 AM CDT (8/13)
Length of Visible Light 14h 09m
Length of Day
13h 18m
Waxing Gibbous, 97% of the Moon is Illuminated
Aug 13
Waxing Gibbous
Aug 15
Full
Aug 23
Last Quarter
Aug 30
New
Sep 5
First Quarter

Hourly Weather History & Observations

Time (CDT) Temp. Heat Index Dew Point Humidity Pressure Visibility Wind Dir Wind Speed Gust Speed Precip Events Conditions
12:53 AM 82.9 °F 91.8 °F 77.0 °F 82% 29.90 in 10.0 mi West 4.6 mph - N/A   Clear
1:53 AM 82.0 °F 90.2 °F 77.0 °F 85% 29.90 in 10.0 mi West 5.8 mph - N/A   Clear
2:53 AM 82.0 °F 90.2 °F 77.0 °F 85% 29.90 in 10.0 mi West 4.6 mph - N/A   Clear
3:53 AM 81.0 °F 87.9 °F 77.0 °F 88% 29.89 in 10.0 mi West 3.5 mph - N/A   Clear
5:53 AM 80.1 °F 85.8 °F 77.0 °F 90% 29.91 in 10.0 mi West 4.6 mph - N/A   Clear
6:53 AM 80.1 °F 85.8 °F 77.0 °F 90% 29.93 in 10.0 mi West 3.5 mph - N/A   Clear
7:53 AM 82.9 °F 92.8 °F 78.1 °F 85% 29.93 in 10.0 mi NW 3.5 mph - N/A   Clear
8:53 AM 86.0 °F 98.3 °F 78.1 °F 77% 29.95 in 10.0 mi West 5.8 mph - N/A   Haze
10:53 AM 91.0 °F 104.2 °F 77.0 °F 63% 29.95 in 10.0 mi West 10.4 mph - N/A   Mostly Cloudy
11:05 AM 89.1 °F 101.4 °F 77.0 °F 67% 29.95 in 10.0 mi Variable 6.9 mph - N/A   Mostly Cloudy
11:12 AM 91.0 °F 104.2 °F 77.0 °F 63% 29.95 in 10.0 mi WNW 3.5 mph - N/A   Scattered Clouds
11:53 AM 90.0 °F 102.5 °F 77.0 °F 65% 29.95 in 10.0 mi West 9.2 mph - N/A   Mostly Cloudy
12:53 PM 93.9 °F 106.9 °F 75.9 °F 56% 29.93 in 10.0 mi WNW 10.4 mph - N/A   Scattered Clouds
1:53 PM 95.0 °F 106.7 °F 75.0 °F 52% 29.90 in 10.0 mi Variable 4.6 mph - N/A   Partly Cloudy
2:53 PM 95.0 °F 105.2 °F 73.9 °F 50% 29.88 in 10.0 mi West 4.6 mph - N/A   Scattered Clouds
3:53 PM 96.1 °F 107.1 °F 73.9 °F 49% 29.87 in 10.0 mi West 5.8 mph - N/A   Mostly Cloudy
4:53 PM 96.1 °F 107.1 °F 73.9 °F 49% 29.86 in 10.0 mi NNW 4.6 mph - N/A   Scattered Clouds
5:53 PM 95.0 °F 105.2 °F 73.9 °F 50% 29.86 in 10.0 mi West 6.9 mph - N/A   Mostly Cloudy
6:29 PM 91.0 °F 102.9 °F 75.9 °F 61% 29.87 in 10.0 mi South 13.8 mph - 0.00 in Rain , Thunderstorm Light Thunderstorms and Rain
6:48 PM 86.0 °F 91.8 °F 71.6 °F 62% 29.89 in 10.0 mi East 16.1 mph 24.2 mph 0.00 in Rain , Thunderstorm Light Thunderstorms and Rain
6:53 PM 82.9 °F 88.0 °F 72.0 °F 69% 29.88 in 3.0 mi ENE 21.9 mph 28.8 mph 0.00 in Rain , Thunderstorm Light Thunderstorms and Rain
6:55 PM 81.0 °F 85.8 °F 73.0 °F 77% 29.89 in 1.8 mi ENE 21.9 mph 28.8 mph 0.00 in Rain , Thunderstorm Light Thunderstorms and Rain
7:30 PM 78.1 °F - 73.9 °F 87% 29.91 in 3.0 mi SW 12.7 mph - 0.70 in Rain , Thunderstorm Light Thunderstorms and Rain
7:53 PM 79.0 °F - 75.0 °F 88% 29.90 in 6.0 mi South 3.5 mph - 0.70 in Thunderstorm Scattered Clouds
8:53 PM 78.1 °F - 75.0 °F 90% 29.89 in 10.0 mi NW 3.5 mph - N/A   Partly Cloudy
9:53 PM 79.0 °F - 75.9 °F 90% 29.91 in 10.0 mi Calm Calm - N/A   Clear
10:53 PM 80.1 °F 85.4 °F 75.9 °F 87% 29.92 in 10.0 mi SE 3.5 mph - N/A   Clear
11:53 PM 80.1 °F 85.4 °F 75.9 °F 87% 29.93 in 10.0 mi Calm Calm - N/A   Clear